Regional Weather Roundup
Issued by NWS

Home | Current Version | Previous Version | Graphics & Text | Print | Product List | Glossary On
Versions: 1 2 3 4 5 6 7 8 9 10 11 12 13 14 15 16 17 18 19 20 21 22 23 24 25 26 27 28 29 30 31 32 33 34 35 36 37 38 39 40 41 42 43 44 45 46 47 48 49 50
498
ASUS43 KIND 141309
RWRIN

WEATHER ROUNDUP FOR INDIANA
NATIONAL WEATHER SERVICE INDIANAPOLIS IN
800 AM EST SUN FEB 14 2016

NOTE: "FAIR" INDICATES FEW OR NO CLOUDS BELOW 12,000 FEET WITH NO
SIGNIFICANT WEATHER AND/OR OBSTRUCTIONS TO VISIBILITY.

* - STATION DOES NOT REPORT WEATHER SUCH AS PRECIPITATION OR FOG.

+ - STATION NOT QUALITY CONTROLLED BY THE NATIONAL WEATHER SERVICE.
    USE DATA WITH CAUTION...ESPECIALLY DEWPOINT AND RELATIVE
    HUMIDITY OBSERVATIONS.

INZ001>003-010>013-019-020-141400-
NORTHWEST INDIANA

CITY           SKY/WX    TMP DP  RH WIND       PRES   REMARKS
GARY /AIRPORT/ MOCLDY    16   1  53 SE10      30.38F WCI   3
KNOX *+        PTCLDY     9   1  72 SE7       30.40F WCI  -3
LA PORTE +     CLOUDY     6   2  82 SE3       30.40F
MICHIGAN CITY+ CLEAR      9   1  72 SE3       30.41F
MONTICELLO +   MOCLDY    12  -1  56 SE6       30.39F WCI   3
RENSSELAER +   CLOUDY    14   1  57 E15       30.38F WCI  -1
VALPARAISO     CLOUDY    11   3  70 SE12      30.38F WCI  -3

$$

LMZ046-743>745-141400-
SOUTHERN LAKE MICHIGAN

STATION/POSITION TIME  TEMP    WIND        PRES    WAVE
                       AIR SEA DIR/SP/G            HT
                 (UTC) (F)     (DEG/KT/KT) (MB)    (FT)
MICHIGAN CITY    1200    9     110/  5/  7   N/A

$$

INZ004-005-014>016-021>024-141400-
NORTH CENTRAL INDIANA

CITY           SKY/WX    TMP DP  RH WIND       PRES   REMARKS
ELKHART        CLOUDY     7   1  78 MISG      30.42
GOSHEN         PTCLDY     4  -1  80 SE6       30.41F WCI  -7
LOGANSPORT +   CLOUDY    12   1  62 SE12      30.41F WCI  -2
PERU/GRISSOM   CLOUDY    10   3  73 SE10      30.39F WCI  -3
ROCHESTER +    CLOUDY     9   0  66 SE6       30.41F WCI  -1
SOUTH BEND     PTCLDY     2  -1  88 SE6       30.41F WCI  -9
WARSAW +       PTCLDY     3   0  85 SE5       30.41F WCI  -6

$$

INZ006>009-017-018-025>027-141400-
NORTHEAST INDIANA

CITY           SKY/WX    TMP DP  RH WIND       PRES   REMARKS
ANGOLA *+      CLEAR      0  -2  92 CALM      30.41R
AUBURN +       CLOUDY     3   0  85 CALM      30.43S
FORT WAYNE     CLOUDY     6   0  76 SE6       30.44F WCI  -4
HUNTINGTON +   CLOUDY     3  -4  74 SE3       30.42F

$$

INZ028-029-035-036-043>045-051>053-141400-
WEST CENTRAL INDIANA

CITY           SKY/WX    TMP DP  RH WIND       PRES   REMARKS
CRAWFORDSVL +  CLOUDY    13   0  55 SE16      30.37F WCI  -3
GREENCASTLE +  FLURRIES  16   0  48 SE9       30.38F WCI   4
LAFAYETTE      CLOUDY    14   2  58 SE12      30.39F WCI   0
TERRE HAUTE    CLOUDY    15  10  80 E15       30.38F WCI   0

$$

INZ030>032-037>040-046>048-054>057-064-065-141400-
CENTRAL INDIANA

CITY           SKY/WX    TMP DP  RH WIND       PRES   REMARKS
FISHERS *+     CLOUDY    12   5  73 SE7       30.41  WCI   2
FRANKFORT +    CLOUDY    14  -3  47 SE15      30.40F WCI  -1
GREENWOOD *+   CLOUDY    14  10  85 SE8       30.41F WCI   3
INDIANAPOLIS   CLOUDY    14   6  70 SE14      30.38F WCI  -1
-EAGLE CREEK   CLOUDY    13   5  70 SE9       30.39F WCI   1
KOKOMO *+      CLOUDY    10   1  67 SE10      30.40F WCI  -3
MARION +       CLOUDY     8  -4  58 SE5       30.42S WCI  -1
MT COMFORT *+  CLOUDY    12   3  67 SE8       30.41S WCI   1
SHELBYVILLE    LGT SNOW  15   4  61 SE9       30.41F WCI   3
ZIONSVILLE +   CLOUDY    13   2  62 SE8       30.40F WCI   1

$$

INZ033-034-041-042-049-050-058-059-141400-
EAST CENTRAL INDIANA

CITY           SKY/WX    TMP DP  RH WIND       PRES   REMARKS
MUNCIE         PTCLDY    11   2  67 SE5       30.41F WCI   3

$$

INZ060-061-067>069-081>083-085>088-141400-
SOUTHWEST INDIANA

CITY           SKY/WX    TMP DP  RH WIND       PRES   REMARKS
EVANSVILLE     CLOUDY    25   9  50 E6        30.38F WCI  18
HUNTINGBURG *+ CLOUDY    19   9  63 E10       30.40R WCI   8
WASHINGTON +   LGT SNOW  18  13  80 SE12      30.40F WCI   5

$$

INZ062-063-066-070>080-084-089>092-141400-
SOUTH CENTRAL AND SOUTHEAST INDIANA

CITY           SKY/WX    TMP DP  RH WIND       PRES   REMARKS
BEDFORD +      LGT SNOW  16  12  86 SE7       30.42S WCI   6
BLOOMINGTON    LGT SNOW  16   9  74 SE12      30.38F WCI   3
MADISON *+     CLOUDY    18   9  68 E7        30.44F WCI   8
NORTH VERNON + LGT SNOW  16   9  73 CALM      30.43F
SEYMOUR +      CLOUDY    19   5  53 SE6       30.43F WCI  11

$$





USA.gov is the U.S. government's official web portal to all federal, state and local government web resources and services.